Location: Sungai Bunut
(2.6333°N, 113.7333°E)
Time: 09:04:31
(UTC+00:00)

Transit 2A Rocket - Pass Details

Date: 10 December 2023
Orbit: 590 x 905 km, 66.7° (Epoch: 01 March)

Event Time Altitude Azimuth Distance (km) Brightness Sun altitude
Rises 23:40:42 0° 303° (WNW) 3,057 7.5 17.9°
Reaches altitude 10° 23:44:11 10° 276° (W) 2,216 6.9 18.7°
Maximum altitude 23:46:34 13° 248° (WSW) 2,044 6.9 19.2°
Drops below altitude 10° 23:49:02 10° 220° (SW) 2,320 7.4 19.8°
Sets 23:52:53 0° 194° (SSW) 3,328 8.5 20.6°
